Torna al catalogo

STARLINK-32745

AttivoComunicazioniVLEO
NORAD 62755·PAYLOAD·🇺🇸 United States

Lanciato Jan 21, 2025 da Cape Canaveral Space Force Station

Loading…

Prossimi Passaggi (prossime 24 ore)

TLE

AggiornatoSource: CelesTrak SupGP

Epoca: Sep 14, 2026, 21:11 UTC

1 62755C 25014W   26257.88312500 -.00024960  00000+0 -90489-3 0  2578
2 62755  42.9990 166.0844 0001456 270.4971 324.0061 15.27560227    19

Traccia STARLINK-32745 in tempo reale con AllMySat

Download on the App Store